Fitchburg, MA

9:09 AM EDT on July 23, 2019 (GMT -0400)
Fitchburg Municipal

Weather History for KFIT - May, 2019

Change the Weather History Date:

Tuesday, May 21, 2019

  Actual Average (KORH) Record (KORH)
Temperature  
Mean Temperature 60 °F -  
Max Temperature 66 °F 68 °F 88 °F (1975)
Min Temperature 54 °F 48 °F 32 °F (1936)
Degree Days  
Heating Degree Days 5    
Growing Degree Days 10 (Base 50)    
Moisture  
Dew Point 36 °F    
Average Humidity 42    
Maximum Humidity 59    
Minimum Humidity 31    
Precipitation  
Precipitation 0.00 in - - ()
Sea Level Pressure  
Sea Level Pressure 29.84 in    
Wind  
Wind Speed 16 mph (NW)    
Max Wind Speed 26 mph    
Max Gust Speed 38 mph    
Visibility 10 miles    
Events      
Averages and records for this station are not official NWS values.
T = Trace of Precipitation, MM = Missing Value Source: NWS Daily Summary

Daily Weather History Graph

Daily Weather History Graph

Search for Another Location

Airport or City:

Astronomy

May. 21, 2019 Rise Set
Actual Time 5:19 AM EDT 8:08 PM EDT
Civil Twilight 4:46 AM EDT 8:41 PM EDT
Nautical Twilight 4:05 AM EDT 9:22 PM EDT
Astronomical Twilight 3:17 AM EDT 10:11 PM EDT
Moon 11:02 PM EDT (5/21) 7:32 AM EDT (5/21)
Length of Visible Light 15h 54m
Length of Day
14h 48m
Waning Gibbous, 91% of the Moon is Illuminated
May 21
Waning Gibbous
May 26
Last Quarter
Jun 3
New
Jun 10
First Quarter
Jun 17
Full

Hourly Weather History & Observations

Time (EDT) Temp. Dew Point Humidity Pressure Visibility Wind Dir Wind Speed Gust Speed Precip Events Conditions
12:52 AM 63.0 °F 46.9 °F 56% 29.73 in 10.0 mi West 15.0 mph - N/A   Clear
1:52 AM 60.1 °F 43.0 °F 53% 29.73 in 10.0 mi West 11.5 mph 19.6 mph N/A   Clear
2:52 AM 57.0 °F 39.9 °F 53% 29.75 in 10.0 mi NW 12.7 mph - N/A   Clear
3:52 AM 55.0 °F 39.9 °F 57% 29.75 in 10.0 mi WNW 10.4 mph - N/A   Clear
4:52 AM 54.0 °F 39.9 °F 59% 29.75 in 10.0 mi West 10.4 mph - N/A   Clear
5:52 AM 54.0 °F 39.9 °F 59% 29.76 in 10.0 mi West 11.5 mph 18.4 mph N/A   Overcast
6:52 AM 55.0 °F 39.9 °F 57% 29.77 in 10.0 mi WNW 16.1 mph 21.9 mph N/A   Partly Cloudy
7:52 AM 55.0 °F 39.0 °F 55% 29.80 in 10.0 mi WNW 18.4 mph - N/A   Overcast
8:52 AM 57.9 °F 35.1 °F 42% 29.81 in 10.0 mi NW 23.0 mph 33.4 mph N/A   Clear
9:52 AM 60.1 °F 35.1 °F 39% 29.79 in 10.0 mi WNW 26.5 mph 38.0 mph N/A   Clear
10:52 AM 63.0 °F 36.0 °F 37% 29.79 in 10.0 mi NNW 17.3 mph 26.5 mph N/A   Clear
11:52 AM 64.0 °F 35.1 °F 34% 29.80 in 10.0 mi NW 25.3 mph 33.4 mph N/A   Clear
12:52 PM 64.9 °F 37.0 °F 36% 29.81 in 10.0 mi NW 19.6 mph 31.1 mph N/A   Clear
1:52 PM 66.0 °F 36.0 °F 33% 29.80 in 10.0 mi WNW 26.5 mph 34.5 mph N/A   Clear
2:52 PM 66.0 °F 36.0 °F 33% 29.81 in 10.0 mi WNW 23.0 mph 31.1 mph N/A   Mostly Cloudy
3:52 PM 64.9 °F 35.1 °F 33% 29.84 in 10.0 mi NW 23.0 mph 38.0 mph N/A   Partly Cloudy
4:52 PM 64.0 °F 33.1 °F 31% 29.87 in 10.0 mi WNW 24.2 mph 36.8 mph N/A   Mostly Cloudy
5:52 PM 64.0 °F 34.0 °F 33% 29.88 in 10.0 mi NW 26.5 mph 34.5 mph N/A   Mostly Cloudy
6:52 PM 63.0 °F 32.0 °F 31% 29.90 in 10.0 mi NW 24.2 mph 36.8 mph N/A   Partly Cloudy
7:52 PM 60.1 °F 30.9 °F 33% 29.94 in 10.0 mi NW 15.0 mph 28.8 mph N/A   Clear
8:52 PM 59.0 °F 32.0 °F 36% 29.97 in 10.0 mi NW 11.5 mph 24.2 mph N/A   Partly Cloudy
9:52 PM 57.9 °F 30.9 °F 36% 30.00 in 10.0 mi NNW 17.3 mph 21.9 mph N/A   Clear
10:52 PM 55.9 °F 32.0 °F 40% 30.01 in 10.0 mi NW 6.9 mph - N/A   Clear
11:52 PM 55.0 °F 33.1 °F 43% 30.02 in 10.0 mi NW 8.1 mph - N/A   Clear